TimeCST,TemperatureF,Dew PointF,Humidity,Sea Level PressureIn,VisibilityMPH,Wind Direction,Wind SpeedMPH,Gust SpeedMPH,PrecipitationIn,Events,Conditions,WindDirDegrees,DateUTC
12:15 AM,32.0,30.2,93,30.10,10.0,ENE,5.8,-,N/A,,Overcast,70,2012-12-09 06:15:00
12:35 AM,35.6,30.2,81,30.10,10.0,East,6.9,-,N/A,,Overcast,100,2012-12-09 06:35:00
12:55 AM,35.6,28.4,75,30.10,10.0,East,9.2,-,N/A,,Overcast,100,2012-12-09 06:55:00
1:15 AM,35.6,28.4,75,30.10,10.0,East,6.9,-,N/A,,Overcast,100,2012-12-09 07:15:00
1:35 AM,35.6,28.4,75,30.09,10.0,East,6.9,-,N/A,,Overcast,90,2012-12-09 07:35:00
1:55 AM,35.6,28.4,75,30.09,10.0,East,6.9,-,N/A,,Overcast,90,2012-12-09 07:55:00
2:15 AM,35.6,30.2,81,30.09,10.0,ESE,11.5,-,N/A,,Overcast,110,2012-12-09 08:15:00
2:35 AM,35.6,28.4,75,30.09,10.0,East,11.5,-,N/A,,Overcast,100,2012-12-09 08:35:00
2:55 AM,35.6,28.4,75,30.09,10.0,East,9.2,-,N/A,,Overcast,100,2012-12-09 08:55:00
3:15 AM,35.6,28.4,75,30.08,10.0,East,10.4,16.1,N/A,,Overcast,100,2012-12-09 09:15:00
3:35 AM,35.6,28.4,75,30.09,10.0,East,10.4,-,N/A,,Overcast,100,2012-12-09 09:35:00
3:55 AM,35.6,28.4,75,30.08,10.0,East,9.2,-,N/A,,Overcast,100,2012-12-09 09:55:00
4:15 AM,35.6,28.4,75,30.05,10.0,East,11.5,16.1,N/A,,Overcast,90,2012-12-09 10:15:00
4:35 AM,35.6,28.4,75,30.05,10.0,East,10.4,-,N/A,,Overcast,90,2012-12-09 10:35:00
4:55 AM,35.6,28.4,75,30.04,10.0,East,11.5,18.4,N/A,,Overcast,90,2012-12-09 10:55:00
5:15 AM,35.6,28.4,75,30.04,10.0,East,10.4,18.4,N/A,,Overcast,90,2012-12-09 11:15:00
5:35 AM,35.6,28.4,75,30.03,10.0,East,9.2,17.3,N/A,,Overcast,90,2012-12-09 11:35:00
5:55 AM,35.6,28.4,75,30.04,10.0,East,9.2,-,N/A,,Overcast,90,2012-12-09 11:55:00
6:15 AM,35.6,30.2,81,30.04,10.0,East,10.4,-,N/A,,Overcast,90,2012-12-09 12:15:00
6:35 AM,35.6,30.2,81,30.03,10.0,East,10.4,19.6,N/A,,Overcast,90,2012-12-09 12:35:00
6:55 AM,35.6,32.0,87,30.03,3.0,East,6.9,-,N/A,Snow,Light Snow,90,2012-12-09 12:55:00
7:15 AM,33.8,32.0,93,30.03,2.5,ENE,9.2,-,N/A,Snow,Light Snow,70,2012-12-09 13:15:00
7:35 AM,33.8,32.0,93,30.02,1.2,ENE,9.2,-,N/A,Snow,Light Snow,70,2012-12-09 13:35:00
7:55 AM,33.8,32.0,93,30.02,1.2,ENE,6.9,-,0.01,Snow,Light Snow,70,2012-12-09 13:55:00
8:15 AM,33.8,32.0,93,30.02,1.2,ENE,6.9,-,N/A,Snow,Light Snow,70,2012-12-09 14:15:00
8:35 AM,33.8,32.0,93,30.01,1.2,ENE,6.9,-,0.01,Snow,Light Snow,60,2012-12-09 14:35:00
8:55 AM,33.8,32.0,93,30.02,1.0,ENE,6.9,-,0.02,Snow,Light Snow,70,2012-12-09 14:55:00
9:15 AM,32.0,32.0,100,30.00,0.8,ENE,9.2,-,N/A,Snow,Light Snow,70,2012-12-09 15:15:00
9:35 AM,32.0,32.0,100,29.99,0.8,ENE,10.4,-,0.01,Snow,Light Snow,70,2012-12-09 15:35:00
9:55 AM,33.8,32.0,93,29.99,1.2,ENE,9.2,-,0.01,Snow,Light Snow,70,2012-12-09 15:55:00
10:15 AM,33.8,32.0,93,29.98,1.5,ENE,9.2,-,0.01,Snow,Light Snow,70,2012-12-09 16:15:00
10:35 AM,33.8,32.0,93,29.96,2.0,ENE,9.2,-,0.01,Snow,Light Snow,70,2012-12-09 16:35:00
10:55 AM,33.8,32.0,93,29.93,1.2,ENE,11.5,-,0.01,Snow,Light Snow,70,2012-12-09 16:55:00
11:15 AM,32.0,32.0,100,29.92,0.5,ENE,8.1,-,0.01,Snow,Snow,60,2012-12-09 17:15:00
11:35 AM,32.0,32.0,100,29.91,0.2,ENE,9.2,-,0.03,Snow,Heavy Snow,70,2012-12-09 17:35:00
11:55 AM,32.0,32.0,100,29.89,0.5,ENE,9.2,-,0.04,Snow,Light Snow,70,2012-12-09 17:55:00
12:15 PM,33.8,32.0,93,29.87,0.5,ENE,9.2,-,N/A,Snow,Snow,70,2012-12-09 18:15:00
12:35 PM,33.8,32.0,93,29.86,0.5,ENE,8.1,-,0.01,Snow,Snow,70,2012-12-09 18:35:00
12:55 PM,33.8,32.0,93,29.85,0.8,ENE,10.4,-,0.01,Snow,Light Snow,70,2012-12-09 18:55:00
1:15 PM,33.8,32.0,93,29.85,0.5,ENE,9.2,-,0.01,Snow,Snow,60,2012-12-09 19:15:00
1:35 PM,33.8,32.0,93,29.83,0.2,ENE,9.2,-,0.01,Snow,Light Snow,60,2012-12-09 19:35:00
1:55 PM,32.0,32.0,100,29.82,0.5,ENE,10.4,-,0.02,Snow,Snow,60,2012-12-09 19:55:00
2:15 PM,32.0,32.0,100,29.81,0.2,ENE,9.2,-,0.01,Snow,Snow,70,2012-12-09 20:15:00
2:35 PM,32.0,32.0,100,29.81,0.8,East,6.9,-,0.01,Snow,Light Snow,80,2012-12-09 20:35:00
2:55 PM,32.0,32.0,100,29.80,0.8,East,9.2,-,0.02,Snow,Light Snow,90,2012-12-09 20:55:00
3:15 PM,32.0,32.0,100,29.79,0.2,East,9.2,-,N/A,Snow,Snow,80,2012-12-09 21:15:00
3:35 PM,32.0,32.0,100,29.80,1.0,East,6.9,-,N/A,Snow,Light Snow,90,2012-12-09 21:35:00
3:55 PM,33.8,32.0,93,29.79,1.0,East,9.2,-,N/A,Snow,Light Snow,90,2012-12-09 21:55:00
4:15 PM,33.8,32.0,93,29.78,1.0,East,8.1,-,N/A,Snow,Light Snow,90,2012-12-09 22:15:00
4:35 PM,33.8,32.0,93,29.77,2.5,East,8.1,-,N/A,Snow,Light Snow,80,2012-12-09 22:35:00
4:55 PM,33.8,32.0,93,29.77,2.5,East,4.6,-,N/A,Snow,Light Snow,80,2012-12-09 22:55:00
5:15 PM,33.8,32.0,93,29.76,3.0,East,5.8,-,N/A,Snow,Light Snow,80,2012-12-09 23:15:00
5:35 PM,33.8,32.0,93,29.75,3.0,East,5.8,-,N/A,Snow,Light Snow,80,2012-12-09 23:35:00
5:55 PM,33.8,32.0,93,29.75,4.0,East,4.6,-,N/A,Snow,Light Snow,80,2012-12-09 23:55:00
6:15 PM,33.8,32.0,93,29.73,3.0,East,6.9,-,N/A,Snow,Light Snow,90,2012-12-10 00:15:00
6:35 PM,33.8,32.0,93,29.73,3.0,ENE,5.8,-,N/A,Rain,Light Rain,70,2012-12-10 00:35:00
6:55 PM,33.8,32.0,93,29.73,4.0,NE,3.5,-,N/A,Rain,Rain,40,2012-12-10 00:55:00
7:15 PM,33.8,32.0,93,29.73,5.0,NE,3.5,-,N/A,,Drizzle,40,2012-12-10 01:15:00
7:35 PM,32.0,32.0,100,29.72,4.0,NE,3.5,-,N/A,Rain,Light Rain,50,2012-12-10 01:35:00
7:55 PM,32.0,32.0,100,29.70,3.0,NE,5.8,-,0.01,Rain,Light Rain,50,2012-12-10 01:55:00
8:15 PM,32.0,32.0,100,29.71,4.0,NNE,3.5,-,N/A,,Drizzle,30,2012-12-10 02:15:00
8:35 PM,32.0,32.0,100,29.70,5.0,NE,4.6,-,N/A,Rain,Light Rain,50,2012-12-10 02:35:00
8:55 PM,32.0,32.0,100,29.69,4.0,NE,4.6,-,N/A,Snow,Light Snow,50,2012-12-10 02:55:00
9:15 PM,32.0,32.0,100,29.68,5.0,NE,5.8,-,N/A,,Overcast,40,2012-12-10 03:15:00
9:35 PM,32.0,32.0,100,29.68,5.0,NNE,4.6,-,N/A,,Overcast,30,2012-12-10 03:35:00
9:55 PM,32.0,32.0,100,29.67,7.0,NE,4.6,-,N/A,,Overcast,40,2012-12-10 03:55:00
10:35 PM,33.8,33.8,100,29.67,4.0,NNW,3.5,-,N/A,,Overcast,340,2012-12-10 04:35:00
10:55 PM,32.0,32.0,100,29.67,2.5,North,3.5,-,N/A,,Heavy Drizzle,350,2012-12-10 04:55:00
11:15 PM,32.0,32.0,100,29.67,1.5,Calm,Calm,-,N/A,Rain,Light Rain,0,2012-12-10 05:15:00
11:35 PM,32.0,32.0,100,29.66,2.0,North,4.6,-,N/A,Snow,Light Snow,10,2012-12-10 05:35:00
11:55 PM,32.0,32.0,100,29.65,2.5,NNE,6.9,-,N/A,Snow,Light Snow,20,2012-12-10 05:55:00